This is the latest recevied weather packets stored in our database for station/object K7AEL. If no packets are shown the sender has not sent any weather packets the latest 10 day(s).
| Time | Temp. | Humidity | Pressure | Rain* | Wind** | Luminosity | Snow |
|---|---|---|---|---|---|---|---|
| 1777669459 | 29.44° C | 22% | 1012.3 hPa | 0 mm | - | 648 W/m² | - |
| 1777669155 | 28.33° C | 22% | 1012.3 hPa | 0 mm | - | 657 W/m² | - |
| 1777668852 | 28.89° C | 22% | 1012.6 hPa | 0 mm | - | 667 W/m² | - |
| 1777668549 | 28.89° C | 22% | 1012.6 hPa | 0 mm | - | 675 W/m² | - |
| 1777668245 | 28.89° C | 22% | 1012.7 hPa | 0 mm | - | 679 W/m² | - |
| 1777667941 | 29.44° C | 21% | 1012.7 hPa | 0 mm | - | 689 W/m² | - |
| 1777667639 | 29.44° C | 21% | 1012.7 hPa | 0 mm | - | 695 W/m² | - |
| 1777667336 | 28.89° C | 23% | 1012.8 hPa | 0 mm | - | 695 W/m² | - |
| 1777667033 | 28.89° C | 22% | 1012.8 hPa | 0 mm | - | 703 W/m² | - |
| 1777666729 | 28.89° C | 22% | 1012.9 hPa | 0 mm | - | 710 W/m² | - |
| 1777666426 | 28.89° C | 21% | 1012.9 hPa | 0 mm | - | 717 W/m² | - |
| 1777666123 | 28.33° C | 22% | 1013 hPa | 0 mm | - | 722 W/m² | - |
| 1777665820 | 29.44° C | 22% | 1012.9 hPa | 0 mm | - | 723 W/m² | - |
| 1777665518 | 27.78° C | 23% | 1013 hPa | 0 mm | - | 727 W/m² | - |
| 1777665213 | 27.78° C | 23% | 1013.2 hPa | 0 mm | - | 730 W/m² | - |
| 1777664910 | 27.78° C | 23% | 1013.3 hPa | 0 mm | - | 734 W/m² | - |
| 1777664606 | 27.78° C | 23% | 1013.4 hPa | 0 mm | - | 738 W/m² | - |
| 1777664302 | 27.22° C | 23% | 1013.3 hPa | 0 mm | - | 738 W/m² | - |
| 1777664001 | 27.78° C | 22% | 1013.4 hPa | 0 mm | - | 743 W/m² | - |
| 1777663698 | 28.33° C | 22% | 1013.6 hPa | 0 mm | - | 745 W/m² | - |
| 1777663395 | 27.78° C | 24% | 1013.6 hPa | 0 mm | - | 742 W/m² | - |
| 1777663092 | 27.22° C | 25% | 1013.5 hPa | 0 mm | - | 743 W/m² | - |
| 1777662788 | 27.78° C | 23% | 1013.7 hPa | 0 mm | - | 744 W/m² | - |
| 1777662480 | 27.22° C | 25% | 1013.9 hPa | 0 mm | - | 744 W/m² | - |
| 1777662175 | 26.67° C | 25% | 1013.8 hPa | 0 mm | - | 743 W/m² | - |
* Rain latest hour (hover to see other rain measurements)
** Current wind speed in m/s (hover to see current wind gust speed)